Tracking 29892 objects as of 21-Nov-2024
HD Live streaming from Space Station
objects crossing your sky now

STARLINK-4452

Track STARLINK-4452 now!
10-day predictions


NORAD ID: 53658
Int'l Code: 2022-105L
Perigee: 567.1 km
Apogee: 573.2 km
Inclination: 97.7 °
Period: 95.9 minutes
Semi major axis: 6941 km
RCS: Unknown
Launch date: August 31, 2022
Source: United States (US)
Launch site: AIR FORCE WESTERN TEST RANGE (AFWTR)
Your satellite tracking list
Your tracking list is empty




NASA's NSSDC Master Catalog

Two Line Element Set (TLE):
1 53658U 22105L   24326.12987215  .00000358  00000-0  32506-4 0  9995
2 53658  97.6550 204.7200 0004395  65.7662 294.4021 15.01256492122461
Source of the keplerian elements: AFSPC